Regional Weather Roundup
Issued by NWS

Home | Current Version | Previous Version | Text Only | Print | Product List | Glossary On
Versions: 1 2 3 4 5 6 7 8 9 10 11 12 13 14 15 16 17 18 19 20 21 22 23 24 25 26 27 28 29 30 31 32 33 34 35 36 37 38 39 40 41 42 43 44 45 46 47 48 49 50
000
ASUS45 KBOI 271810
RWRID

IDAHO REGIONAL WEATHER ROUNDUP
NATIONAL WEATHER SERVICE BOISE ID
1200 PM MDT MON MAR 27 2017

NOTE: "FAIR" INDICATES FEW OR NO CLOUDS BELOW 12000 FEET
WITH NO SIGNIFICANT WEATHER AND/OR OBSTRUCTIONS TO VISIBILITY

IDZ012-014-271900-
SOUTHWEST IDAHO


CITY           SKY/WX    TMP DP  RH WIND       PRES   REMARKS
BOISE          PTSUNNY   47  37  68 NW15      30.01R
CALDWELL       MOSUNNY   51  37  58 W20G26    30.02R
MOUNTAIN HOME  MOSUNNY   48  38  68 NW20      30.00R
$$

IDZ016-017-271900-
SOUTHCENTRAL IDAHO


CITY           SKY/WX    TMP DP  RH WIND       PRES   REMARKS
BURLEY         LGT RAIN  44  35  70 W15       29.93S
JEROME         CLOUDY    43  39  86 W17       29.95R
TWIN FALLS     CLOUDY    43  36  76 W24       29.96R
$$

IDZ019>023-271900-
SOUTHEAST IDAHO


CITY           SKY/WX    TMP DP  RH WIND       PRES   REMARKS
IDAHO FALLS    LGT RAIN  42  39  89 SW15      29.91R
POCATELLO      CLOUDY    42  39  89 W13       29.93R
REXBURG        CLOUDY    43  36  76 SW9       29.90R
$$

IDZ006-010-011-018-031-032-271900-
CENTRAL IDAHO MOUNTAINS


CITY           SKY/WX    TMP DP  RH WIND       PRES   REMARKS
MCCALL         FLURRIES  35  30  82 NW8       29.96R WCI  29
HAILEY         PTSUNNY   39  36  87 SE12      29.93R WCI  32
STANLEY          N/A     39  30  70 NW3       29.92R
SALMON         CLOUDY    46  34  61 N3        29.88S
CHALLIS        CLOUDY    44  28  53 CALM      29.89R
$$

IDZ002-004-006-007-026-271900-
NORTHERN IDAHO


CITY           SKY/WX    TMP DP  RH WIND       PRES   REMARKS
LEWISTON       PTSUNNY   53  39  59 VRB6      30.03R
LOWELL           N/A     43  40  89 N3        30.08R
COEUR D`ALENE  CLOUDY    44  38  79 SW15      29.99R
MULLAN PASS    SNOW      29  29 100 VRB3      29.91R VSB 1/4
$$



USA.gov is the U.S. government's official web portal to all federal, state and local government web resources and services.